Time,TemperatureF,DewpointF,PressureIn,WindDirection,WindDirectionDegrees,WindSpeedMPH,WindSpeedGustMPH,Humidity,HourlyPrecipIn,Conditions,Clouds,dailyrainin,SoftwareType,DateUTC
2013-10-29 00:19:00,41.0,-99.9,-100.00,ENE,68,6.0,10.0,-999,0.00,,,0.00,,2013-10-29 05:19:00,
2013-10-29 00:45:00,41.0,-99.9,-100.00,ENE,75,4.0,9.0,-999,0.00,,,0.00,,2013-10-29 05:45:00,
2013-10-29 00:52:00,41.0,-99.9,-100.00,ENE,75,4.0,9.0,-999,0.00,,,0.00,,2013-10-29 05:52:00,
2013-10-29 01:16:00,41.0,-99.9,-100.00,ENE,69,4.0,6.0,-999,0.00,,,0.00,,2013-10-29 06:16:00,
2013-10-29 01:26:00,41.0,-99.9,-100.00,ENE,69,4.0,6.0,-999,0.00,,,0.00,,2013-10-29 06:26:00,
2013-10-29 01:44:00,41.0,-99.9,-100.00,ENE,60,6.0,10.0,-999,0.00,,,0.00,,2013-10-29 06:44:00,
2013-10-29 01:53:00,41.0,-99.9,-100.00,ENE,60,6.0,10.0,-999,0.00,,,0.00,,2013-10-29 06:53:00,
2013-10-29 02:11:00,41.0,-99.9,-100.00,ENE,58,7.0,9.0,-999,0.00,,,0.00,,2013-10-29 07:11:00,
2013-10-29 02:25:00,41.0,-99.9,-100.00,ENE,58,7.0,9.0,-999,0.00,,,0.00,,2013-10-29 07:25:00,
2013-10-29 02:44:00,41.0,-99.9,-100.00,ENE,62,5.0,7.0,-999,0.00,,,0.00,,2013-10-29 07:44:00,
2013-10-29 02:55:00,41.0,-99.9,-100.00,ENE,62,5.0,7.0,-999,0.00,,,0.00,,2013-10-29 07:55:00,
2013-10-29 03:14:00,40.0,-99.9,-100.00,ENE,69,3.0,5.0,-999,0.00,,,0.00,,2013-10-29 08:14:00,
2013-10-29 03:24:00,40.0,-99.9,-100.00,ENE,69,3.0,5.0,-999,0.00,,,0.00,,2013-10-29 08:24:00,
2013-10-29 03:42:00,40.0,-99.9,-100.00,NE,53,3.0,5.0,-999,0.00,,,0.00,,2013-10-29 08:42:00,
2013-10-29 03:52:00,40.0,-99.9,-100.00,NE,53,3.0,5.0,-999,0.00,,,0.00,,2013-10-29 08:52:00,
2013-10-29 04:11:00,40.0,-99.9,-100.00,NE,56,5.0,7.0,-999,0.00,,,0.00,,2013-10-29 09:11:00,
2013-10-29 04:22:00,40.0,-99.9,-100.00,NE,56,5.0,7.0,-999,0.00,,,0.00,,2013-10-29 09:22:00,
2013-10-29 04:43:00,40.0,-99.9,-100.00,NE,46,5.0,7.0,-999,0.00,,,0.00,,2013-10-29 09:43:00,
2013-10-29 04:53:00,40.0,-99.9,-100.00,NE,46,5.0,7.0,-999,0.00,,,0.00,,2013-10-29 09:53:00,
2013-10-29 05:13:00,39.0,-99.9,-100.00,ENE,70,4.0,7.0,-999,0.00,,,0.00,,2013-10-29 10:13:00,
2013-10-29 05:23:00,39.0,-99.9,-100.00,ENE,70,4.0,7.0,-999,0.00,,,0.00,,2013-10-29 10:23:00,
2013-10-29 05:42:00,39.0,-99.9,-100.00,ENE,71,4.0,7.0,-999,0.00,,,0.00,,2013-10-29 10:42:00,
2013-10-29 05:54:00,39.0,-99.9,-100.00,ENE,71,4.0,7.0,-999,0.00,,,0.00,,2013-10-29 10:54:00,
2013-10-29 06:12:00,39.0,-99.9,-100.00,ENE,76,4.0,6.0,-999,0.00,,,0.00,,2013-10-29 11:12:00,
2013-10-29 06:22:00,39.0,-99.9,-100.00,ENE,76,4.0,6.0,-999,0.00,,,0.00,,2013-10-29 11:22:00,
2013-10-29 06:30:00,38.0,-99.9,-100.00,ENE,58,3.0,5.0,-999,0.00,,,0.00,,2013-10-29 11:30:00,
2013-10-29 06:42:00,38.0,-99.9,-100.00,East,85,2.0,6.0,-999,0.00,,,0.00,,2013-10-29 11:42:00,
2013-10-29 07:12:00,38.0,-99.9,-100.00,ENE,58,3.0,5.0,-999,0.00,,,0.00,,2013-10-29 12:12:00,
2013-10-29 07:21:00,38.0,-99.9,-100.00,ENE,58,3.0,5.0,-999,0.00,,,0.00,,2013-10-29 12:21:00,
2013-10-29 07:52:00,38.0,-99.9,-100.00,ESE,103,1.0,2.0,-999,0.00,,,0.00,,2013-10-29 12:52:00,
2013-10-29 08:12:00,38.0,-99.9,-100.00,ENE,77,2.0,3.0,-999,0.00,,,0.00,,2013-10-29 13:12:00,
2013-10-29 08:22:00,38.0,-99.9,-100.00,ENE,77,2.0,3.0,-999,0.00,,,0.00,,2013-10-29 13:22:00,
2013-10-29 08:42:00,39.0,-99.9,-100.00,East,81,2.0,3.0,-999,0.00,,,0.00,,2013-10-29 13:42:00,
2013-10-29 08:53:00,39.0,-99.9,-100.00,East,81,2.0,3.0,-999,0.00,,,0.00,,2013-10-29 13:53:00,
2013-10-29 09:12:00,40.0,-99.9,-100.00,NE,48,4.0,5.0,-999,0.00,,,0.00,,2013-10-29 14:12:00,
2013-10-29 09:22:00,40.0,-99.9,-100.00,NE,48,4.0,5.0,-999,0.00,,,0.00,,2013-10-29 14:22:00,
2013-10-29 09:42:00,40.0,-99.9,-100.00,ENE,63,2.0,5.0,-999,0.00,,,0.00,,2013-10-29 14:42:00,
2013-10-29 09:52:00,40.0,-99.9,-100.00,ENE,63,2.0,5.0,-999,0.00,,,0.00,,2013-10-29 14:52:00,
2013-10-29 10:11:00,41.0,-99.9,-100.00,ENE,65,3.0,6.0,-999,0.00,,,0.00,,2013-10-29 15:11:00,
2013-10-29 10:22:00,41.0,-99.9,-100.00,ENE,65,3.0,6.0,-999,0.00,,,0.00,,2013-10-29 15:22:00,
2013-10-29 10:44:00,43.0,-99.9,-100.00,NE,55,3.0,5.0,-999,0.00,,,0.00,,2013-10-29 15:44:00,
2013-10-29 10:54:00,43.0,-99.9,-100.00,NE,55,3.0,5.0,-999,0.00,,,0.00,,2013-10-29 15:54:00,
2013-10-29 11:13:00,47.0,-99.9,-100.00,East,101,4.0,7.0,-999,0.00,,,0.00,,2013-10-29 16:13:00,
2013-10-29 11:23:00,47.0,-99.9,-100.00,East,101,4.0,7.0,-999,0.00,,,0.00,,2013-10-29 16:23:00,
2013-10-29 11:43:00,48.0,-99.9,-100.00,SE,126,4.0,8.0,-999,0.00,,,0.00,,2013-10-29 16:43:00,
2013-10-29 11:53:00,48.0,-99.9,-100.00,SE,126,4.0,8.0,-999,0.00,,,0.00,,2013-10-29 16:53:00,
2013-10-29 12:12:00,48.0,-99.9,-100.00,SSE,159,7.0,10.0,-999,0.00,,,0.00,,2013-10-29 17:12:00,
2013-10-29 12:22:00,48.0,-99.9,-100.00,SSE,159,7.0,10.0,-999,0.00,,,0.00,,2013-10-29 17:22:00,
2013-10-29 12:42:00,49.0,-99.9,-100.00,SSE,149,5.0,9.0,-999,0.00,,,0.00,,2013-10-29 17:42:00,
2013-10-29 12:52:00,49.0,-99.9,-100.00,SSE,149,5.0,9.0,-999,0.00,,,0.00,,2013-10-29 17:52:00,
2013-10-29 13:12:00,50.0,-99.9,-100.00,SSE,149,4.0,7.0,-999,0.00,,,0.00,,2013-10-29 18:12:00,
2013-10-29 13:22:00,50.0,-99.9,-100.00,SSE,149,4.0,7.0,-999,0.00,,,0.00,,2013-10-29 18:22:00,
2013-10-29 13:42:00,51.0,-99.9,-100.00,SSE,161,7.0,10.0,-999,0.00,,,0.00,,2013-10-29 18:42:00,
2013-10-29 13:52:00,51.0,-99.9,-100.00,SSE,161,7.0,10.0,-999,0.00,,,0.00,,2013-10-29 18:52:00,
2013-10-29 14:12:00,52.0,-99.9,-100.00,SSE,159,5.0,7.0,-999,0.00,,,0.00,,2013-10-29 19:12:00,
2013-10-29 14:22:00,52.0,-99.9,-100.00,SSE,159,5.0,7.0,-999,0.00,,,0.00,,2013-10-29 19:22:00,
2013-10-29 14:42:00,55.0,-99.9,-100.00,SSE,151,4.0,7.0,-999,0.00,,,0.00,,2013-10-29 19:42:00,
2013-10-29 14:53:00,55.0,-99.9,-100.00,SSE,151,4.0,7.0,-999,0.00,,,0.00,,2013-10-29 19:53:00,
2013-10-29 15:12:00,57.0,-99.9,-100.00,SSE,155,7.0,9.0,-999,0.00,,,0.00,,2013-10-29 20:12:00,
2013-10-29 15:22:00,57.0,-99.9,-100.00,SSE,155,7.0,9.0,-999,0.00,,,0.00,,2013-10-29 20:22:00,
2013-10-29 15:43:00,58.0,-99.9,-100.00,SSE,153,5.0,6.0,-999,0.00,,,0.00,,2013-10-29 20:43:00,
2013-10-29 15:52:00,58.0,-99.9,-100.00,SSE,153,5.0,6.0,-999,0.00,,,0.00,,2013-10-29 20:52:00,
2013-10-29 16:12:00,60.0,-99.9,-100.00,SSE,151,6.0,9.0,-999,0.00,,,0.00,,2013-10-29 21:12:00,
2013-10-29 16:22:00,60.0,-99.9,-100.00,SSE,151,6.0,9.0,-999,0.00,,,0.00,,2013-10-29 21:22:00,
2013-10-29 16:30:00,56.0,-99.9,-100.00,SSE,160,7.0,8.0,-999,0.00,,,0.00,,2013-10-29 21:30:00,
2013-10-29 16:44:00,57.0,-99.9,-100.00,SSE,162,5.0,7.0,-999,0.00,,,0.00,,2013-10-29 21:44:00,
2013-10-29 16:54:00,57.0,-99.9,-100.00,SSE,162,5.0,7.0,-999,0.00,,,0.00,,2013-10-29 21:54:00,
2013-10-29 17:14:00,56.0,-99.9,-100.00,SSE,160,7.0,8.0,-999,0.00,,,0.00,,2013-10-29 22:14:00,
2013-10-29 17:23:00,56.0,-99.9,-100.00,SSE,160,7.0,8.0,-999,0.00,,,0.00,,2013-10-29 22:23:00,
2013-10-29 17:53:00,56.0,-99.9,-100.00,SSE,163,6.0,7.0,-999,0.00,,,0.00,,2013-10-29 22:53:00,
2013-10-29 18:13:00,54.0,-99.9,-100.00,SSE,166,1.0,3.0,-999,0.00,,,0.00,,2013-10-29 23:13:00,
2013-10-29 18:22:00,54.0,-99.9,-100.00,SSE,166,1.0,3.0,-999,0.00,,,0.00,,2013-10-29 23:22:00,
2013-10-29 18:43:00,54.0,-99.9,-100.00,South,169,3.0,4.0,-999,0.00,,,0.00,,2013-10-29 23:43:00,
2013-10-29 18:53:00,54.0,-99.9,-100.00,South,169,3.0,4.0,-999,0.00,,,0.00,,2013-10-29 23:53:00,
2013-10-29 19:12:00,55.0,-99.9,-100.00,South,174,1.0,2.0,-999,0.00,,,0.00,,2013-10-30 00:12:00,
2013-10-29 19:22:00,55.0,-99.9,-100.00,South,174,1.0,2.0,-999,0.00,,,0.00,,2013-10-30 00:22:00,
2013-10-29 19:43:00,54.0,-99.9,-100.00,SSE,167,2.0,3.0,-999,0.00,,,0.00,,2013-10-30 00:43:00,
2013-10-29 19:52:00,54.0,-99.9,-100.00,SSE,167,2.0,3.0,-999,0.00,,,0.00,,2013-10-30 00:52:00,
2013-10-29 20:12:00,53.0,-99.9,-100.00,SSE,161,3.0,5.0,-999,0.00,,,0.00,,2013-10-30 01:12:00,
2013-10-29 20:23:00,53.0,-99.9,-100.00,SSE,161,3.0,5.0,-999,0.00,,,0.00,,2013-10-30 01:23:00,
2013-10-29 20:42:00,53.0,-99.9,-100.00,SSE,164,6.0,8.0,-999,0.00,,,0.00,,2013-10-30 01:42:00,
2013-10-29 20:52:00,53.0,-99.9,-100.00,SSE,164,6.0,8.0,-999,0.00,,,0.00,,2013-10-30 01:52:00,
2013-10-29 21:12:00,52.0,-99.9,-100.00,SSE,168,8.0,10.0,-999,0.00,,,0.00,,2013-10-30 02:12:00,
2013-10-29 21:22:00,52.0,-99.9,-100.00,SSE,168,8.0,10.0,-999,0.00,,,0.00,,2013-10-30 02:22:00,
2013-10-29 21:30:00,52.0,-99.9,-100.00,SSE,159,2.0,3.0,-999,0.00,,,0.00,,2013-10-30 02:30:00,
2013-10-29 21:43:00,52.0,-99.9,-100.00,SSE,165,4.0,7.0,-999,0.00,,,0.00,,2013-10-30 02:43:00,
2013-10-29 21:52:00,52.0,-99.9,-100.00,SSE,165,4.0,7.0,-999,0.00,,,0.00,,2013-10-30 02:52:00,
2013-10-29 22:12:00,52.0,-99.9,-100.00,SSE,159,2.0,3.0,-999,0.00,,,0.00,,2013-10-30 03:12:00,
2013-10-29 22:22:00,52.0,-99.9,-100.00,SSE,159,2.0,3.0,-999,0.00,,,0.00,,2013-10-30 03:22:00,
2013-10-29 23:13:00,52.0,-99.9,-100.00,SSE,161,2.0,3.0,-999,0.00,,,0.00,,2013-10-30 04:13:00,
2013-10-29 23:24:00,52.0,-99.9,-100.00,SSE,161,2.0,3.0,-999,0.00,,,0.00,,2013-10-30 04:24:00,
2013-10-29 23:44:00,52.0,-99.9,-100.00,SSE,166,2.0,4.0,-999,0.00,,,0.00,,2013-10-30 04:44:00,
2013-10-29 23:54:00,52.0,-99.9,-100.00,SSE,166,2.0,4.0,-999,0.00,,,0.00,,2013-10-30 04:54:00,